Simultaneous Nadir Overpasses (SNOs) Predictions

Prediction of SNOs between METOP-A and NOAA-19 Satellite Orbit:

Table of predicted SNOs for the next 14.0 days since TLE Epoch: 6/29/2019
Index Date (METOP-A) Time (METOP-A) Lat,Lon (METOP-A) SZA (METOP-A ) Date (NOAA-19) Time (NOAA-19) Lat,Lon (NOAA-19) SZA (NOAA-19 ) Distance(km) Time Diff (sec)
1 07/08/2019 01:58:23 -79.78, -17.32 122.59 07/08/2019 01:57:10 -79.77, -17.38 122.61 1.51 73
2 07/08/2019 02:49:04 79.77, 149.86 57.40 07/08/2019 02:48:06 79.78, 149.86 57.40 1.24 58
3 07/08/2019 03:39:45 -79.77, -42.76 122.60 07/08/2019 03:39:10 -79.75, -42.64 122.61 3.21 35
4 07/08/2019 04:30:26 79.75, 124.42 57.39 07/08/2019 04:30:07 79.78, 124.31 57.41 3.78 19
5 07/08/2019 05:21:07 -79.76, -68.21 122.61 07/08/2019 05:21:11 -79.76, -68.19 122.60 0.38 4
6 07/08/2019 06:11:48 79.74, 98.97 57.38 07/08/2019 06:12:07 79.76, 99.05 57.41 2.73 19
7 07/08/2019 07:02:29 -79.75, -93.66 122.61 07/08/2019 07:03:12 -79.76, -93.75 122.59 2.60 43
8 07/08/2019 07:53:09 79.76, 73.80 57.41 07/08/2019 07:54:07 79.74, 73.80 57.40 2.52 58




NCC Satellite Simultaneous Nadir Overpasses (SNOs) Prediction Service
